Weather in Ermish

Russia / Ryazan Oblast     54°46′08″N   42°16′05″E
temp.,
°C
wind,
m/s
gust,
m/s
humid.,
%
clouds,
%
prec.,
mm/h
press.,
hPa
HPBL,
m
22 may, sun
sun2200:00+4e367694 0.0 100691
03:00+2ene497910 0.0 1006218
06:00+5ene368522 0.0 1003199
09:00+9ne55605 0.0 10021050
12:00+11ene444891 0.0 10021907
15:00+11ne444499 0.0 10011907
18:00+9nne565741 0.0 10011386
21:00+3nne510665 0.0 1003342
23 may, mon
mon2300:00−1n37815 0.0 1003129
03:00−2nnw36885 0.0 1004113
06:00+1nnw47725 0.0 1004313
09:00+5nw5759100 0.0 10031522
12:00+5nw5756100 0.0 10031586
15:00+8nw5853100 0.0 10031672
18:00+9nw4759100 0.0 10031288
21:00+5wsw3571100 0.0 100270
24 may, tue
tue2400:00+3w3475100 0.0 100257
03:00+3w31071100 0.0 1002262
06:00+5wnw51167100 0.0 10031253
09:00+4wnw5780100 0.2 1004862
12:00+5wnw4575100 0.7 10061115
15:00+7nnw4565100 1.3 10071292
18:00+6n4571100 0.4 1008999
21:00+1n33865 0.6 101143
25 may, wed
wed2500:000nw22895 0.0 101122
03:00−1nw35929 0.0 101372
06:00+2nw36855 0.0 1014215
09:00+7nw456097 0.1 10141516
12:00+8nw455598 0.1 10141685
15:00+9wnw4553100 0.2 10141719
18:00+9w45606 0.0 10151077
21:00+4wnw228199 0.0 101514
26 may, thu
thu2600:00+3wsw238281 0.0 101526
03:00+2wsw379078 0.0 1014121
06:00+5wsw3882100 0.0 1013252
09:00+9sw4671100 0.0 1011754
12:00+13w466391 0.0 10091399
15:00+16sw356044 0.1 10061246
18:00+15sw4778100 0.9 1003361
21:00+11ssw31199100 4.0 1002447